| time (UTC) | temp F | wind direction | speed knots | gust knots | rain 1hr in | rain 24hr in | rain mn in | humidity % | barometer mb |
| 20260505194432 | 63 | 303 | 7.0 | 13.9 | 0.00 | 0.12 | 0.20 | 66 | 1014.7 |
| 20260505193930 | 63 | 276 | 7.0 | 13.9 | 0.00 | 0.12 | 0.20 | 65 | 1014.6 |
| 20260505193651 | 63 | 348 | 6.1 | 13.0 | 0.00 | 0.12 | 0.20 | 64 | 1014.6 |
| 20260505192930 | 63 | 347 | 8.7 | 13.0 | 0.00 | 0.12 | 0.20 | 64 | 1014.6 |
| 20260505192431 | 63 | 265 | 7.0 | 13.0 | 0.00 | 0.12 | 0.20 | 66 | 1014.7 |
| 20260505191930 | 63 | 264 | 2.6 | 13.0 | 0.00 | 0.12 | 0.20 | 69 | 1014.6 |
| 20260505190930 | 63 | 349 | 3.5 | 14.8 | 0.00 | 0.12 | 0.20 | 66 | 1014.6 |
| 20260505190652 | 63 | 274 | 3.5 | 11.3 | 0.00 | 0.12 | 0.20 | 65 | 1014.7 |
| 20260505190204 | 63 | 337 | 6.1 | 11.3 | 0.00 | 0.12 | 0.20 | 64 | 1014.7 |
| 20260505185431 | 63 | 257 | 4.3 | 12.2 | 0.00 | 0.12 | 0.20 | 64 | 1014.6 |
| 20260505184931 | 64 | 341 | 5.2 | 14.8 | 0.00 | 0.12 | 0.20 | 66 | 1014.6 |
| 20260505184431 | 64 | 332 | 7.0 | 14.8 | 0.00 | 0.12 | 0.20 | 67 | 1014.5 |
| 20260505183931 | 64 | 298 | 6.1 | 10.4 | 0.00 | 0.12 | 0.20 | 66 | 1014.7 |
| 20260505183430 | 64 | 310 | 4.3 | 12.2 | 0.00 | 0.12 | 0.20 | 67 | 1014.6 |
| 20260505183152 | 63 | 291 | 3.5 | 12.2 | 0.00 | 0.12 | 0.20 | 64 | 1014.6 |
| 20260505182658 | 63 | 324 | 5.2 | 10.4 | 0.00 | 0.12 | 0.20 | 66 | 1014.7 |
| 20260505181930 | 63 | 258 | 2.6 | 10.4 | 0.00 | 0.12 | 0.20 | 65 | 1014.5 |
| 20260505181428 | 62 | 272 | 7.8 | 12.2 | 0.00 | 0.12 | 0.20 | 65 | 1014.6 |
| 20260505180931 | 62 | 226 | 4.3 | 13.9 | 0.00 | 0.12 | 0.20 | 64 | 1014.5 |
| 20260505180656 | 62 | 332 | 7.8 | 13.9 | 0.00 | 0.12 | 0.20 | 65 | 1014.4 |
| 20260505175930 | 62 | 263 | 5.2 | 13.9 | 0.00 | 0.12 | 0.20 | 67 | 1014.5 |
| 20260505175429 | 62 | 355 | 7.0 | 13.9 | 0.00 | 0.12 | 0.20 | 71 | 1014.5 |
| 20260505174930 | 61 | 241 | 2.6 | 10.4 | 0.00 | 0.12 | 0.20 | 71 | 1014.4 |
| 20260505174431 | 61 | 233 | 7.8 | 11.3 | 0.00 | 0.12 | 0.20 | 69 | 1014.2 |
| 20260505173929 | 61 | 271 | 6.1 | 14.8 | 0.00 | 0.12 | 0.20 | 69 | 1014.2 |
| 20260505173649 | 61 | 326 | 10.4 | 14.8 | 0.00 | 0.12 | 0.20 | 70 | 1014.1 |
| 20260505172930 | 61 | 305 | 5.2 | 13.9 | 0.00 | 0.12 | 0.20 | 68 | 1014.1 |
| 20260505172429 | 61 | 349 | 6.1 | 13.9 | 0.00 | 0.12 | 0.20 | 71 | 1014.1 |
| 20260505172148 | 60 | 339 | 9.6 | 13.0 | 0.00 | 0.12 | 0.20 | 73 | 1014.1 |
| 20260505171429 | 60 | 279 | 1.7 | 12.2 | 0.00 | 0.12 | 0.20 | 75 | 1014.0 |
| 20260505170928 | 60 | 280 | 7.8 | 13.9 | 0.00 | 0.12 | 0.20 | 71 | 1014.0 |
| 20260505170429 | 60 | 333 | 4.3 | 13.9 | 0.00 | 0.12 | 0.20 | 74 | 1014.0 |
| 20260505170146 | 60 | 337 | 5.2 | 12.2 | 0.00 | 0.12 | 0.20 | 71 | 1014.0 |
| 20260505165427 | 60 | 281 | 5.2 | 13.9 | 0.00 | 0.12 | 0.20 | 73 | 1014.0 |
| 20260505164926 | 60 | 276 | 6.1 | 13.9 | 0.00 | 0.12 | 0.20 | 75 | 1013.9 |
| 20260505164427 | 60 | 319 | 6.1 | 12.2 | 0.00 | 0.12 | 0.20 | 74 | 1013.8 |
| 20260505163931 | 60 | 283 | 6.1 | 13.0 | 0.00 | 0.12 | 0.20 | 75 | 1013.7 |
| 20260505163427 | 60 | 310 | 4.3 | 13.0 | 0.00 | 0.12 | 0.20 | 78 | 1013.7 |
| 20260505162928 | 60 | 344 | 9.6 | 13.0 | 0.00 | 0.12 | 0.20 | 76 | 1013.6 |
| 20260505162427 | 60 | 348 | 1.7 | 8.7 | 0.00 | 0.12 | 0.20 | 78 | 1013.6 |
| 20260505161427 | 60 | 324 | 4.3 | 6.1 | 0.00 | 0.12 | 0.20 | 80 | 1013.5 |
| 20260505160926 | 60 | 332 | 0.9 | 5.2 | 0.00 | 0.12 | 0.20 | 83 | 1013.4 |
| 20260505160426 | 59 | 226 | 0.9 | 5.2 | 0.00 | 0.12 | 0.20 | 80 | 1013.5 |
| 20260505153152 | 57 | 333 | 2.6 | 4.3 | 0.00 | 0.12 | 0.20 | 87 | 1013.2 |
| 20260505152653 | 56 | 259 | 0.0 | 0.9 | 0.00 | 0.12 | 0.20 | 89 | 1013.3 |
| 20260505151927 | 56 | 285 | 0.0 | 1.7 | 0.00 | 0.12 | 0.20 | 90 | 1013.3 |
| 20260505151425 | 56 | 263 | 0.0 | 1.7 | 0.00 | 0.12 | 0.20 | 90 | 1013.3 |
| 20260505150926 | 55 | 305 | 0.0 | 1.7 | 0.00 | 0.12 | 0.20 | 90 | 1013.3 |
| 20260505150425 | 55 | 275 | 0.0 | 1.7 | 0.01 | 0.12 | 0.20 | 90 | 1013.2 |
| 20260505140422 | 55 | 255 | 0.0 | 6.1 | 0.07 | 0.11 | 0.19 | 94 | 1012.8 |
| 20260505140147 | 55 | 259 | 3.5 | 7.8 | 0.06 | 0.10 | 0.18 | 94 | 1012.9 |
| 20260505124923 | 56 | 341 | 4.3 | 7.0 | 0.01 | 0.04 | 0.12 | 92 | 1012.2 |
| 20260505124651 | 56 | 333 | 4.3 | 8.7 | 0.01 | 0.04 | 0.12 | 92 | 1012.1 |
| 20260505123922 | 56 | 330 | 5.2 | 8.7 | 0.01 | 0.04 | 0.12 | 92 | 1012.2 |
| 20260505123423 | 56 | 340 | 5.2 | 7.0 | 0.01 | 0.04 | 0.12 | 92 | 1012.2 |
| 20260505122924 | 56 | 305 | 4.3 | 7.0 | 0.01 | 0.04 | 0.12 | 92 | 1012.1 |
| 20260505122423 | 56 | 25 | 4.3 | 7.0 | 0.03 | 0.04 | 0.12 | 92 | 1012.1 |
| 20260505121921 | 56 | 339 | 4.3 | 7.8 | 0.04 | 0.04 | 0.12 | 92 | 1012.1 |
| 20260505121422 | 56 | 344 | 3.5 | 7.8 | 0.04 | 0.04 | 0.12 | 92 | 1012.2 |
| 20260505120922 | 56 | 330 | 1.7 | 4.3 | 0.04 | 0.04 | 0.12 | 93 | 1012.1 |
| 20260505120421 | 56 | 275 | 1.7 | 5.2 | 0.04 | 0.04 | 0.12 | 93 | 1012.1 |
| 20260505120143 | 56 | 230 | 1.7 | 5.2 | 0.03 | 0.03 | 0.11 | 93 | 1012.1 |
| 20260505115646 | 56 | 227 | 0.9 | 2.6 | 0.03 | 0.03 | 0.11 | 94 | 1012.0 |
| 20260505114921 | 56 | 226 | 0.9 | 2.6 | 0.03 | 0.03 | 0.11 | 94 | 1012.0 |
| 20260505114420 | 56 | 235 | 0.0 | 0.0 | 0.03 | 0.03 | 0.11 | 94 | 1012.0 |
| 20260505113921 | 56 | 245 | 0.0 | 0.9 | 0.03 | 0.03 | 0.11 | 94 | 1012.0 |
| 20260505113421 | 56 | 245 | 0.0 | 2.6 | 0.03 | 0.03 | 0.11 | 94 | 1012.0 |
| 20260505113143 | 56 | 239 | 0.9 | 5.2 | 0.03 | 0.03 | 0.11 | 94 | 1012.1 |
| 20260505111920 | 56 | 253 | 1.7 | 1.7 | 0.00 | 0.00 | 0.08 | 92 | 1012.0 |
| 20260505111422 | 56 | 242 | 0.0 | 1.7 | 0.00 | 0.00 | 0.08 | 92 | 1012.0 |
| 20260505110925 | 56 | 248 | 0.0 | 1.7 | 0.00 | 0.00 | 0.08 | 93 | 1012.0 |
| 20260505110420 | 56 | 239 | 0.0 | 1.7 | 0.00 | 0.00 | 0.08 | 93 | 1012.0 |
| 20260505101419 | 56 | 224 | 2.6 | 4.3 | 0.00 | 0.00 | 0.08 | 94 | 1012.2 |
| 20260505100919 | 56 | 249 | 0.9 | 4.3 | 0.00 | 0.00 | 0.08 | 95 | 1012.1 |
| 20260505100416 | 56 | 240 | 0.0 | 0.0 | 0.00 | 0.00 | 0.08 | 95 | 1012.2 |
| 20260505100033 | 56 | 232 | 1.7 | 5.2 | 0.00 | 0.08 | 0.08 | 95 | 1012.1 |
| 20260505095533 | 56 | 262 | 0.9 | 5.2 | 0.00 | 0.08 | 0.08 | 95 | 1012.2 |
| 20260505095035 | 56 | 229 | 2.6 | 4.3 | 0.00 | 0.08 | 0.08 | 95 | 1012.3 |
| 20260505094534 | 56 | 258 | 0.0 | 4.3 | 0.00 | 0.08 | 0.08 | 95 | 1012.3 |
| 20260505094032 | 56 | 228 | 0.9 | 5.2 | 0.00 | 0.08 | 0.08 | 95 | 1012.3 |
| 20260505093532 | 56 | 260 | 2.6 | 5.2 | 0.00 | 0.08 | 0.08 | 95 | 1012.3 |
| 20260505093033 | 56 | 237 | 2.6 | 2.6 | 0.00 | 0.08 | 0.08 | 95 | 1012.4 |
| 20260505092534 | 56 | 236 | 0.9 | 2.6 | 0.01 | 0.08 | 0.08 | 95 | 1012.5 |
| 20260505092032 | 55 | 250 | 0.0 | 1.7 | 0.02 | 0.08 | 0.08 | 95 | 1012.5 |
| 20260505091532 | 55 | 253 | 0.0 | 1.7 | 0.03 | 0.08 | 0.08 | 95 | 1012.5 |
| 20260505091033 | 55 | 227 | 1.7 | 1.7 | 0.05 | 0.08 | 0.08 | 95 | 1012.5 |
| 20260505090533 | 55 | 249 | 0.0 | 0.9 | 0.07 | 0.08 | 0.08 | 95 | 1012.6 |
| 20260505090032 | 55 | 256 | 0.0 | 2.6 | 0.08 | 0.08 | 0.08 | 95 | 1012.6 |
| 20260505085759 | 55 | 250 | 0.0 | 5.2 | 0.08 | 0.08 | 0.08 | 94 | 1012.6 |
| 20260505085032 | 55 | 247 | 0.0 | 5.2 | 0.08 | 0.08 | 0.08 | 94 | 1012.8 |
| 20260505084533 | 55 | 212 | 3.5 | 4.3 | 0.08 | 0.08 | 0.08 | 94 | 1012.7 |
| 20260505084031 | 55 | 233 | 0.9 | 4.3 | 0.08 | 0.08 | 0.08 | 95 | 1012.6 |
| 20260505083531 | 55 | 232 | 0.9 | 2.6 | 0.08 | 0.08 | 0.08 | 95 | 1012.8 |
| 20260505083031 | 55 | 241 | 1.7 | 5.2 | 0.08 | 0.08 | 0.08 | 95 | 1012.8 |
| 20260505082532 | 55 | 258 | 0.9 | 8.7 | 0.07 | 0.07 | 0.07 | 95 | 1012.9 |
| 20260505082031 | 56 | 222 | 2.6 | 10.4 | 0.06 | 0.06 | 0.06 | 94 | 1013.0 |
| 20260505081801 | 56 | 231 | 2.6 | 10.4 | 0.05 | 0.05 | 0.05 | 94 | 1013.1 |
| 20260505081030 | 57 | 217 | 2.6 | 10.4 | 0.03 | 0.03 | 0.03 | 94 | 1013.1 |
| 20260505080531 | 58 | 234 | 2.6 | 10.4 | 0.01 | 0.01 | 0.01 | 93 | 1013.1 |
| 20260505080031 | 58 | 280 | 7.0 | 13.9 | 0.00 | 0.00 | 0.00 | 93 | 1013.0 |
| 20260505075531 | 58 | 261 | 7.8 | 13.9 | 0.00 | 0.00 | 0.00 | 92 | 1013.1 |
| 20260505075030 | 59 | 242 | 7.0 | 13.0 | 0.00 | 0.00 | 0.00 | 89 | 1013.1 |
| 20260505074532 | 59 | 220 | 1.7 | 5.2 | 0.00 | 0.00 | 0.00 | 87 | 1013.1 |
| 20260505074030 | 59 | 231 | 2.6 | 5.2 | 0.00 | 0.00 | 0.00 | 86 | 1013.1 |
| 20260505073530 | 59 | 243 | 0.9 | 6.1 | 0.00 | 0.00 | 0.00 | 87 | 1013.1 |
| 20260505073029 | 59 | 219 | 2.6 | 6.1 | 0.00 | 0.00 | 0.00 | 85 | 1013.2 |
| 20260505072531 | 59 | 242 | 4.3 | 5.2 | 0.00 | 0.00 | 0.00 | 85 | 1013.2 |
| 20260505072032 | 59 | 254 | 0.9 | 5.2 | 0.00 | 0.00 | 0.00 | 85 | 1013.2 |
| 20260505071529 | 59 | 257 | 0.9 | 4.3 | 0.00 | 0.00 | 0.00 | 86 | 1013.2 |
| 20260505071253 | 59 | 268 | 1.7 | 4.3 | 0.00 | 0.00 | 0.00 | 86 | 1013.2 |
| 20260505070031 | 59 | 250 | 0.9 | 4.3 | 0.00 | 0.00 | 0.00 | 86 | 1013.2 |
| 20260505065749 | 59 | 258 | 0.9 | 4.3 | 0.00 | 0.00 | 0.00 | 86 | 1013.2 |
| 20260505065304 | 59 | 266 | 1.7 | 4.3 | 0.00 | 0.00 | 0.00 | 86 | 1013.2 |
| 20260505064530 | 59 | 263 | 1.7 | 5.2 | 0.00 | 0.00 | 0.00 | 87 | 1013.3 |
| 20260505064252 | 59 | 267 | 3.5 | 5.2 | 0.00 | 0.00 | 0.00 | 87 | 1013.4 |
| 20260505063528 | 59 | 284 | 3.5 | 5.2 | 0.00 | 0.00 | 0.00 | 87 | 1013.3 |
| 20260505063029 | 60 | 278 | 1.7 | 7.8 | 0.00 | 0.00 | 0.00 | 87 | 1013.3 |
| 20260505062530 | 60 | 296 | 2.6 | 7.8 | 0.00 | 0.00 | 0.00 | 87 | 1013.3 |
| 20260505062030 | 60 | 279 | 1.7 | 7.8 | 0.00 | 0.00 | 0.00 | 86 | 1013.4 |
| 20260505061528 | 60 | 261 | 1.7 | 7.0 | 0.00 | 0.00 | 0.00 | 85 | 1013.5 |
| 20260505061031 | 61 | 287 | 0.9 | 7.0 | 0.00 | 0.00 | 0.00 | 83 | 1013.4 |
| 20260505060543 | 61 | 222 | 2.6 | 4.3 | 0.00 | 0.00 | 0.00 | 75 | 1013.4 |
| 20260505060031 | 61 | 217 | 1.7 | 4.3 | 0.00 | 0.00 | 0.00 | 74 | 1013.5 |
| 20260505055755 | 61 | 252 | 0.9 | 2.6 | 0.00 | 0.00 | 0.00 | 74 | 1013.5 |
| 20260505055028 | 61 | 254 | 0.0 | 4.3 | 0.00 | 0.00 | 0.00 | 74 | 1013.5 |
| 20260505054529 | 61 | 242 | 2.6 | 4.3 | 0.00 | 0.00 | 0.00 | 74 | 1013.6 |
| 20260505054029 | 61 | 250 | 0.9 | 4.3 | 0.00 | 0.00 | 0.00 | 73 | 1013.7 |
| 20260505053529 | 61 | 260 | 0.9 | 6.1 | 0.00 | 0.00 | 0.00 | 73 | 1013.7 |
| 20260505053028 | 61 | 229 | 2.6 | 6.1 | 0.00 | 0.00 | 0.00 | 73 | 1013.7 |
| 20260505052527 | 61 | 243 | 2.6 | 6.1 | 0.00 | 0.00 | 0.00 | 73 | 1013.8 |
| 20260505052030 | 61 | 229 | 3.5 | 6.1 | 0.00 | 0.00 | 0.00 | 73 | 1013.8 |
| 20260505051747 | 61 | 224 | 1.7 | 5.2 | 0.00 | 0.00 | 0.00 | 73 | 1013.9 |
| 20260505051026 | 61 | 225 | 3.5 | 5.2 | 0.00 | 0.00 | 0.00 | 73 | 1013.8 |
| 20260505050526 | 61 | 233 | 2.6 | 5.2 | 0.00 | 0.00 | 0.00 | 73 | 1013.9 |
| 20260505041539 | 61 | 217 | 5.2 | 7.0 | 0.00 | 0.00 | 0.00 | 71 | 1014.1 |
| 20260505041028 | 61 | 223 | 2.6 | 7.0 | 0.00 | 0.00 | 0.00 | 72 | 1014.0 |
| 20260505040526 | 61 | 223 | 1.7 | 7.0 | 0.00 | 0.00 | 0.00 | 72 | 1014.0 |
| 20260505040028 | 61 | 210 | 4.3 | 7.0 | 0.00 | 0.00 | 0.00 | 72 | 1014.0 |
| 20260505035527 | 61 | 219 | 2.6 | 6.1 | 0.00 | 0.00 | 0.00 | 72 | 1013.9 |
| 20260505035025 | 61 | 251 | 2.6 | 7.0 | 0.00 | 0.00 | 0.00 | 72 | 1014.0 |
| 20260505034525 | 61 | 262 | 3.5 | 7.0 | 0.00 | 0.00 | 0.00 | 72 | 1013.9 |
| 20260505034027 | 61 | 245 | 4.3 | 7.0 | 0.00 | 0.00 | 0.00 | 71 | 1013.8 |
| 20260505033746 | 61 | 248 | 4.3 | 7.0 | 0.00 | 0.00 | 0.00 | 71 | 1013.8 |
| 20260505033024 | 61 | 262 | 1.7 | 6.1 | 0.00 | 0.00 | 0.00 | 70 | 1013.7 |
| 20260505032539 | 61 | 256 | 1.7 | 7.0 | 0.00 | 0.00 | 0.00 | 70 | 1013.7 |
| 20260505032025 | 61 | 232 | 5.2 | 7.0 | 0.00 | 0.00 | 0.00 | 70 | 1013.7 |
| 20260505031525 | 61 | 224 | 3.5 | 6.1 | 0.00 | 0.00 | 0.00 | 71 | 1013.7 |
| 20260505031028 | 61 | 205 | 3.5 | 5.2 | 0.00 | 0.00 | 0.00 | 72 | 1013.5 |
| 20260505030525 | 61 | 231 | 0.9 | 5.2 | 0.00 | 0.00 | 0.00 | 72 | 1013.5 |
| 20260505030024 | 61 | 254 | 0.9 | 6.1 | 0.00 | 0.00 | 0.00 | 71 | 1013.6 |
| 20260505025525 | 61 | 259 | 3.5 | 6.1 | 0.00 | 0.00 | 0.00 | 72 | 1013.6 |
| 20260505025024 | 60 | 238 | 2.6 | 6.1 | 0.00 | 0.00 | 0.00 | 72 | 1013.5 |
| 20260505024524 | 60 | 251 | 1.7 | 6.1 | 0.00 | 0.00 | 0.00 | 73 | 1013.4 |
| 20260505024244 | 61 | 242 | 0.9 | 6.1 | 0.00 | 0.00 | 0.00 | 73 | 1013.3 |
| 20260505023745 | 61 | 254 | 0.9 | 7.0 | 0.00 | 0.00 | 0.00 | 73 | 1013.3 |
| 20260505023247 | 61 | 256 | 1.7 | 7.0 | 0.00 | 0.00 | 0.00 | 73 | 1013.4 |
| 20260505022524 | 61 | 294 | 4.3 | 7.0 | 0.00 | 0.00 | 0.00 | 73 | 1013.4 |
| 20260505022023 | 62 | 258 | 1.7 | 7.0 | 0.00 | 0.00 | 0.00 | 73 | 1013.4 |
| 20260505021524 | 62 | 307 | 2.6 | 7.0 | 0.00 | 0.00 | 0.00 | 73 | 1013.4 |
| 20260505021025 | 62 | 271 | 2.6 | 11.3 | 0.00 | 0.00 | 0.00 | 72 | 1013.5 |
| 20260505020523 | 63 | 229 | 4.3 | 11.3 | 0.00 | 0.00 | 0.00 | 73 | 1013.4 |
| 20260505020242 | 63 | 248 | 3.5 | 8.7 | 0.00 | 0.00 | 0.00 | 72 | 1013.5 |
| 20260505015524 | 63 | 289 | 7.0 | 8.7 | 0.00 | 0.00 | 0.00 | 68 | 1013.5 |
| 20260505015026 | 63 | 272 | 4.3 | 7.8 | 0.00 | 0.00 | 0.00 | 68 | 1013.6 |
| 20260505014523 | 63 | 333 | 3.5 | 7.0 | 0.00 | 0.00 | 0.00 | 68 | 1013.4 |
| 20260505013524 | 62 | 246 | 2.6 | 8.7 | 0.00 | 0.00 | 0.00 | 67 | 1013.4 |
| 20260505013246 | 62 | 345 | 4.3 | 10.4 | 0.00 | 0.00 | 0.00 | 71 | 1013.5 |
| 20260505012524 | 63 | 329 | 4.3 | 10.4 | 0.00 | 0.00 | 0.00 | 72 | 1013.7 |
| 20260505012246 | 63 | 266 | 5.2 | 8.7 | 0.00 | 0.00 | 0.00 | 70 | 1013.8 |
| 20260505011523 | 64 | 263 | 2.6 | 11.3 | 0.00 | 0.00 | 0.00 | 70 | 1013.7 |
| 20260505011252 | 64 | 262 | 4.3 | 13.0 | 0.00 | 0.00 | 0.00 | 68 | 1013.6 |
| 20260505010522 | 64 | 265 | 2.6 | 13.0 | 0.00 | 0.00 | 0.00 | 68 | 1013.7 |
| 20260505010244 | 65 | 299 | 3.5 | 8.7 | 0.00 | 0.00 | 0.00 | 68 | 1013.7 |
| 20260505005745 | 64 | 10 | 3.5 | 8.7 | 0.00 | 0.00 | 0.00 | 67 | 1013.6 |
| 20260505005022 | 64 | 299 | 3.5 | 11.3 | 0.00 | 0.00 | 0.00 | 67 | 1013.7 |
| 20260505004521 | 64 | 340 | 2.6 | 11.3 | 0.00 | 0.00 | 0.00 | 66 | 1013.8 |
| 20260505004021 | 65 | 266 | 4.3 | 8.7 | 0.00 | 0.00 | 0.00 | 67 | 1013.8 |
| 20260505003523 | 65 | 308 | 2.6 | 7.8 | 0.00 | 0.00 | 0.00 | 67 | 1013.8 |
| 20260505003023 | 65 | 7 | 4.3 | 7.8 | 0.00 | 0.00 | 0.00 | 67 | 1013.8 |
| 20260505002520 | 65 | 0 | 4.3 | 8.7 | 0.00 | 0.00 | 0.00 | 67 | 1013.8 |
| 20260505002021 | 65 | 355 | 4.3 | 8.7 | 0.00 | 0.00 | 0.00 | 64 | 1013.9 |
| 20260505001750 | 65 | 293 | 4.3 | 10.4 | 0.00 | 0.00 | 0.00 | 64 | 1013.9 |
| 20260505000520 | 65 | 275 | 2.6 | 7.8 | 0.00 | 0.00 | 0.00 | 62 | 1013.9 |
| 20260505000022 | 65 | 230 | 0.9 | 7.8 | 0.00 | 0.00 | 0.00 | 63 | 1014.0 |
| 20260504235521 | 65 | 249 | 0.9 | 7.8 | 0.00 | 0.00 | 0.00 | 63 | 1013.9 |
| 20260504235022 | 65 | 278 | 2.6 | 10.4 | 0.00 | 0.00 | 0.00 | 61 | 1014.0 |
| 20260504234520 | 65 | 278 | 5.2 | 12.2 | 0.00 | 0.00 | 0.00 | 63 | 1014.0 |
| 20260504234020 | 65 | 247 | 2.6 | 12.2 | 0.00 | 0.00 | 0.00 | 65 | 1014.0 |
| 20260504233741 | 65 | 267 | 6.1 | 8.7 | 0.00 | 0.00 | 0.00 | 64 | 1014.0 |
| 20260504233022 | 65 | 277 | 5.2 | 8.7 | 0.00 | 0.00 | 0.00 | 63 | 1014.0 |
| 20260504232519 | 65 | 297 | 2.6 | 8.7 | 0.00 | 0.00 | 0.00 | 63 | 1013.9 |
| 20260504232019 | 65 | 229 | 5.2 | 10.4 | 0.00 | 0.00 | 0.00 | 64 | 1013.9 |
| 20260504231521 | 65 | 300 | 2.6 | 10.4 | 0.00 | 0.00 | 0.00 | 64 | 1013.8 |
| 20260504231020 | 65 | 218 | 1.7 | 10.4 | 0.00 | 0.00 | 0.00 | 63 | 1013.9 |
| 20260504230020 | 65 | 282 | 4.3 | 13.0 | 0.00 | 0.00 | 0.00 | 64 | 1013.9 |
| 20260504225519 | 65 | 345 | 8.7 | 11.3 | 0.00 | 0.00 | 0.00 | 65 | 1013.8 |
| 20260504225020 | 65 | 319 | 7.0 | 10.4 | 0.00 | 0.00 | 0.00 | 64 | 1014.0 |
| 20260504224520 | 65 | 289 | 4.3 | 10.4 | 0.00 | 0.00 | 0.00 | 60 | 1013.9 |
| 20260504224019 | 65 | 263 | 1.7 | 10.4 | 0.00 | 0.00 | 0.00 | 60 | 1013.9 |
| 20260504223518 | 65 | 355 | 3.5 | 10.4 | 0.00 | 0.00 | 0.00 | 64 | 1013.9 |
| 20260504223020 | 65 | 294 | 6.1 | 10.4 | 0.00 | 0.00 | 0.00 | 63 | 1013.9 |
| 20260504222519 | 65 | 267 | 4.3 | 8.7 | 0.00 | 0.00 | 0.00 | 67 | 1014.0 |
| 20260504222018 | 65 | 326 | 3.5 | 10.4 | 0.00 | 0.00 | 0.00 | 64 | 1014.1 |
| 20260504221518 | 65 | 291 | 5.2 | 13.0 | 0.00 | 0.00 | 0.00 | 67 | 1014.2 |
| 20260504221019 | 65 | 338 | 7.0 | 13.0 | 0.00 | 0.00 | 0.00 | 65 | 1014.2 |
| 20260504220519 | 65 | 353 | 3.5 | 12.2 | 0.00 | 0.00 | 0.00 | 66 | 1014.4 |
| 20260504220019 | 65 | 240 | 3.5 | 13.9 | 0.00 | 0.00 | 0.00 | 63 | 1014.5 |
| 20260504215517 | 65 | 311 | 7.8 | 13.9 | 0.00 | 0.00 | 0.00 | 67 | 1014.4 |
| 20260504215019 | 65 | 353 | 7.0 | 12.2 | 0.00 | 0.00 | 0.00 | 65 | 1014.4 |
| 20260504214518 | 65 | 251 | 2.6 | 12.2 | 0.00 | 0.00 | 0.00 | 66 | 1014.5 |
| 20260504214018 | 65 | 299 | 5.2 | 12.2 | 0.00 | 0.00 | 0.00 | 67 | 1014.6 |
| 20260504213517 | 65 | 359 | 5.2 | 12.2 | 0.00 | 0.00 | 0.00 | 65 | 1014.6 |
| 20260504213019 | 65 | 253 | 4.3 | 12.2 | 0.00 | 0.00 | 0.00 | 65 | 1014.5 |
| 20260504212739 | 65 | 358 | 5.2 | 12.2 | 0.00 | 0.00 | 0.00 | 66 | 1014.5 |
| 20260504212018 | 65 | 247 | 3.5 | 12.2 | 0.00 | 0.00 | 0.00 | 64 | 1014.6 |
| 20260504211517 | 65 | 355 | 7.0 | 12.2 | 0.00 | 0.00 | 0.00 | 66 | 1014.6 |
| 20260504211018 | 65 | 276 | 4.3 | 13.9 | 0.00 | 0.00 | 0.00 | 64 | 1014.7 |
| 20260504210518 | 65 | 248 | 3.5 | 14.8 | 0.00 | 0.00 | 0.00 | 66 | 1014.7 |
| 20260504210243 | 65 | 349 | 8.7 | 14.8 | 0.00 | 0.00 | 0.00 | 66 | 1014.6 |
| 20260504205516 | 65 | 263 | 3.5 | 13.9 | 0.00 | 0.00 | 0.00 | 65 | 1014.7 |
| 20260504205017 | 65 | 286 | 5.2 | 13.9 | 0.00 | 0.00 | 0.00 | 65 | 1014.7 |
| 20260504204518 | 65 | 346 | 6.1 | 13.9 | 0.00 | 0.00 | 0.00 | 68 | 1014.6 |
| 20260504204016 | 65 | 230 | 4.3 | 11.3 | 0.00 | 0.00 | 0.00 | 67 | 1014.7 |
| 20260504203733 | 65 | 262 | 4.3 | 10.4 | 0.00 | 0.00 | 0.00 | 67 | 1014.7 |
| 20260504203016 | 65 | 341 | 6.1 | 10.4 | 0.00 | 0.00 | 0.00 | 67 | 1014.7 |
| 20260504202517 | 65 | 254 | 0.9 | 12.2 | 0.00 | 0.00 | 0.00 | 67 | 1014.5 |
| 20260504202016 | 65 | 341 | 4.3 | 12.2 | 0.00 | 0.00 | 0.00 | 65 | 1014.5 |
| 20260504201515 | 65 | 309 | 4.3 | 11.3 | 0.00 | 0.00 | 0.00 | 66 | 1014.6 |
| 20260504201017 | 65 | 258 | 2.6 | 11.3 | 0.00 | 0.00 | 0.00 | 65 | 1014.6 |
| 20260504200517 | 65 | 310 | 5.2 | 13.9 | 0.00 | 0.00 | 0.00 | 64 | 1014.6 |
| 20260504200017 | 64 | 333 | 4.3 | 13.9 | 0.00 | 0.00 | 0.00 | 65 | 1014.7 |
| 20260504195516 | 64 | 324 | 10.4 | 13.0 | 0.00 | 0.00 | 0.00 | 64 | 1014.6 |
| 20260504195015 | 64 | 330 | 4.3 | 13.0 | 0.00 | 0.00 | 0.00 | 64 | 1014.7 |
| 20260504194737 | 64 | 341 | 6.1 | 13.9 | 0.00 | 0.00 | 0.00 | 67 | 1014.8 |